Weather History for KWAL - February, 2014

Change the Weather History Date:

Saturday, February 22, 2014

  Actual Average Record
Temperature  
Mean Temperature 45 °F 40 °F  
Max Temperature 57 °F 48 °F 70 °F (1997)
Min Temperature 33 °F 31 °F 13 °F (1968)
Degree Days  
Heating Degree Days 20    
Month to date heating degree days 563  
Since 1 July heating degree days 2820  
Cooling Degree Days 0    
Month to date cooling degree days 0  
Year to date cooling degree days 0  
Moisture  
Dew Point 34 °F    
Average Humidity 64    
Maximum Humidity 100    
Minimum Humidity 27    
Precipitation  
Precipitation 0.00 in 0.10 in 0.73 in (2015)
Month to date precipitation 2.61 2.12  
Year to date precipitation 5.57 5.16  
Sea Level Pressure  
Sea Level Pressure 30.09 in    
Wind  
Wind Speed 7 mph (SW)    
Max Wind Speed 20 mph    
Max Gust Speed 32 mph    
Visibility 5 miles    
Events Fog    
T = Trace of Precipitation, MM = Missing Value Source: NWS Daily Summary

Daily Weather History Graph

Daily Weather History Graph

Search for Another Location

Airport or City:

Trip Planner

Search our weather history database for the weather conditions in past years. The results will help you decide how hot, cold, wet, or windy it might be!

Date:

Astronomy

Feb. 22, 2014 Rise Set
Actual Time 6:43 AM EST 5:48 PM EST
Civil Twilight 6:16 AM EST 6:14 PM EST
Nautical Twilight 5:45 AM EST 6:45 PM EST
Astronomical Twilight 5:15 AM EST 7:15 PM EST
Moon 12:33 AM EST (2/22) 10:59 AM EST (2/22)
Length of Visible Light 11h 58m
Length of Day
11h 05m
Waning Gibbous, 50% of the Moon is Illuminated
Feb 22
Waning Gibbous
Feb 22
Last Quarter
Mar 1
New
Mar 8
First Quarter
Mar 16
Full

Hourly Weather History & Observations

Time (EST) Temp. Windchill Dew Point Humidity Pressure Visibility Wind Dir Wind Speed Gust Speed Precip Events Conditions
12:54 AM 39.9 °F - 37.9 °F 93% 29.97 in 0.2 mi Calm Calm - N/A Fog Fog
1:44 AM 37.9 °F - 37.0 °F 97% 30.00 in 0.8 mi Calm Calm - N/A   Mist
1:54 AM 37.0 °F - 35.1 °F 93% 30.00 in 0.2 mi Calm Calm - N/A Fog Fog
2:44 AM 37.9 °F 35.5 °F 36.0 °F 93% 30.02 in 0.2 mi Variable 3.5 mph - N/A Fog Fog
2:54 AM 37.9 °F 35.5 °F 36.0 °F 93% 30.01 in 0.5 mi NNW 3.5 mph - N/A Fog Fog
3:04 AM 37.9 °F 34.4 °F 37.0 °F 97% 30.03 in 0.8 mi NNW 4.6 mph - N/A   Mist
3:10 AM 37.9 °F 35.5 °F 37.0 °F 97% 30.03 in 1.2 mi NNW 3.5 mph - N/A   Partly Cloudy
3:13 AM 37.9 °F 34.4 °F 37.0 °F 97% 30.03 in 2.5 mi NNW 4.6 mph - N/A   Partly Cloudy
3:22 AM 35.1 °F 31.0 °F 34.0 °F 96% 30.03 in 1.8 mi NW 4.6 mph - N/A   Clear
3:32 AM 37.0 °F 32.4 °F 35.1 °F 93% 30.04 in 2.5 mi NNW 5.8 mph - N/A   Clear
3:40 AM 36.0 °F 31.1 °F 35.1 °F 97% 30.04 in 6.0 mi NW 5.8 mph - N/A   Clear
3:54 AM 37.0 °F - 35.1 °F 93% 30.04 in 7.0 mi Calm Calm - N/A   Clear
4:44 AM 37.0 °F 34.5 °F 35.1 °F 93% 30.09 in 2.5 mi ESE 3.5 mph - N/A   Clear
4:47 AM 37.0 °F 34.5 °F 36.0 °F 96% 30.09 in 1.0 mi ESE 3.5 mph - N/A   Mist
4:51 AM 37.4 °F - 35.6 °F 93% 30.09 in 0.5 mi Calm Calm - N/A Fog Fog
4:54 AM 37.0 °F - 36.0 °F 96% 30.09 in 0.5 mi Calm Calm - N/A Fog Fog
5:54 AM 36.0 °F - 35.1 °F 97% 30.09 in 0.2 mi Calm Calm - N/A Fog Fog
6:54 AM 34.0 °F - 33.1 °F 96% 30.12 in 0.2 mi Calm Calm - N/A Fog Fog
7:44 AM 37.0 °F 33.3 °F 37.0 °F 100% 30.14 in 1.2 mi South 4.6 mph - N/A   Scattered Clouds
7:48 AM 37.4 °F 33.8 °F 35.6 °F 93% 30.15 in 0.5 mi SSW 4.6 mph - N/A Fog Fog
7:54 AM 39.0 °F 34.8 °F 37.9 °F 96% 30.14 in 0.2 mi SSW 5.8 mph - N/A Fog Fog
8:19 AM 43.0 °F 40.3 °F 43.0 °F 100% 30.16 in 1.2 mi SSW 4.6 mph - N/A   Partly Cloudy
8:22 AM 44.1 °F 41.5 °F 43.0 °F 96% 30.16 in 3.0 mi SSW 4.6 mph - N/A   Partly Cloudy
8:54 AM 46.0 °F 44.8 °F 44.1 °F 93% 30.16 in 10.0 mi South 3.5 mph - N/A   Clear
9:54 AM 51.1 °F - 37.9 °F 61% 30.17 in 10.0 mi South 5.8 mph - N/A   Clear
10:54 AM 52.0 °F - 30.9 °F 45% 30.17 in 10.0 mi SSW 6.9 mph - N/A   Clear
11:54 AM 53.1 °F - 30.9 °F 43% 30.16 in 10.0 mi SSW 9.2 mph - N/A   Clear
12:54 PM 55.9 °F - 28.0 °F 34% 30.14 in 10.0 mi North - - N/A   Clear
1:54 PM 57.0 °F - 24.1 °F 28% 30.11 in 10.0 mi SSW 11.5 mph - N/A   Clear
2:54 PM 55.9 °F - 23.0 °F 28% 30.09 in 10.0 mi SSW 12.7 mph - N/A   Clear
3:54 PM 54.0 °F - 23.0 °F 30% 30.09 in 10.0 mi SSW 11.5 mph - N/A   Clear
4:54 PM 52.0 °F - 25.0 °F 35% 30.09 in 10.0 mi SSW 11.5 mph - N/A   Clear
5:54 PM 48.0 °F - 27.0 °F 44% 30.10 in 10.0 mi SSW 10.4 mph - N/A   Clear
6:54 PM 44.1 °F 38.6 °F 30.0 °F 58% 30.12 in 10.0 mi SW 10.4 mph - N/A   Clear
7:54 PM 46.0 °F 40.2 °F 34.0 °F 63% 30.11 in 10.0 mi SW 12.7 mph - N/A   Clear
8:54 PM 46.0 °F 39.9 °F 32.0 °F 58% 30.11 in 10.0 mi SW 13.8 mph - N/A   Clear
9:54 PM 46.0 °F 41.0 °F 33.1 °F 61% 30.12 in 10.0 mi SW 10.4 mph - N/A   Clear
10:54 PM 43.0 °F 37.2 °F 36.0 °F 76% 30.12 in 10.0 mi SW 10.4 mph - N/A   Clear
11:54 PM 41.0 °F 35.2 °F 36.0 °F 82% 30.11 in 10.0 mi SSW 9.2 mph - N/A   Clear